Regional Weather Roundup
Issued by NWS

Home | Current Version | Previous Version | Text Only | Print | Product List | Glossary Off
Versions: 1 2 3 4 5 6 7 8 9 10 11 12 13 14 15 16 17 18 19 20 21 22 23 24 25 26 27 28 29 30 31 32 33 34 35 36 37 38 39 40 41 42 43 44 45 46 47 48 49 50

000
ASUS43 KMPX 050401
RWRMN
WEATHER ROUNDUP FOR MINNESOTA
NATIONAL WEATHER SERVICE TWIN CITIES/CHANHASSEN MN
1100 PM CDT WED MAY 04 2016


NOTE: "FAIR" INDICATES FEW OR NO CLOUDS BELOW 12,000 FEET WITH NO
SIGNIFICANT WEATHER AND/OR OBSTRUCTIONS TO VISIBILITY. N/A MEANS
CURRENT SKY AND/OR WEATHER CONDITIONS ARE NOT AVAILABLE.

MNZ060>063-068>070-050500-
   Twin Cities Metro

CITY           SKY/WX    TMP DP  RH WIND       PRES   REMARKS
TWIN CITIES    PTCLDY    55  31  39 N3        29.98S
ST PAUL        CLEAR     48  37  65 S3        29.99R
CRYSTAL        CLEAR     50  27  40 CALM      29.97S
BLAINE         CLEAR     48  30  49 CALM      29.98S
EDEN PRAIRIE   CLEAR     55  23  28 NW5       29.97S
SOUTH ST PAUL  CLEAR     51  31  45 CALM      29.98S
LAKE ELMO      FAIR      45  32  61 CALM      29.99S
$$
MNZ001>005-007-008-013>017-022>024-027-028-050500-
   Northwest Minnesota

CITY           SKY/WX    TMP DP  RH WIND       PRES   REMARKS
BEMIDJI        CLEAR     46  32  58 SW3       29.96F
HALLOCK        CLEAR     55  27  33 S12       29.88F
ROSEAU         CLEAR     50  34  53 S8        29.91F
WARROAD        CLEAR     48  36  61 SE7       29.92F
THIEF RVR FALL CLEAR     52  25  35 S8        29.94F
CROOKSTON      PTCLDY    52  34  50 SE9       29.94F
FOSSTON        CLEAR     45  19  36 S5        29.97F
DETROIT LAKES  PTCLDY    54  36  50 SE3       29.99F
MOORHEAD       CLEAR     57  32  38 SE5       29.97F
PARK RAPIDS    PTCLDY    49  30  48 CALM      29.97F
MAHNOMEN       FAIR      54  28  37 SE3       29.97F
$$
MNZ006-009>011-018-025>026-050500-
   North Central Minnesota

CITY           SKY/WX    TMP DP  RH WIND       PRES   REMARKS
BAUDETTE       PTCLDY    46  34  62 S3        29.95R
FLAG ISLAND    CLOUDY    48  39  71 E3        29.92S
INTL FALLS     CLEAR     38  28  67 CALM      29.96R
WASKISH        PTCLDY    45  37  76 CALM      29.96S
BIG FORK       CLEAR     39  28  65 CALM      29.98R
LONGVILLE      CLEAR     39  32  75 CALM      29.97F
GRAND RAPIDS   CLEAR     41  21  45 S3        29.97F
CRANE LAKE     CLEAR     34  27  75 CALM      29.99R
ORR            CLEAR     39  19  45 CALM      29.95R
COOK           CLEAR     37  27  65 CALM      29.98R
WALKER         FAIR      45  26  46 SW3       29.97F
$$
MNZ012-019>021-037-050500-
   Northeast Minnesota

CITY           SKY/WX    TMP DP  RH WIND       PRES   REMARKS
DULUTH         PTCLDY    41  28  60 SE5       29.98F
ELY            CLEAR     36  28  75 CALM      29.96F
HIBBING        CLEAR     34  22  61 CALM      29.96F
EVELETH        PTCLDY    36  28  75 CALM      29.98S
DULUTH HARBOR  PTCLDY    39  36  87 N5        30.01F
TWO HARBORS    CLEAR     37  30  75 CALM      29.98S
SILVER BAY     CLOUDY    34  28  80 CALM      29.98S
GRAND MARAIS     N/A     35  28  75 CALM      30.02S
G MARAIS ARPRT CLEAR     30  25  80 CALM      29.99S
$$
MNZ029>031-032-039>041-046>048-054>057-064-050500-
   West Central Minnesota

CITY           SKY/WX    TMP DP  RH WIND       PRES   REMARKS
FERGUS FALLS   CLEAR     57  30  35 CALM      29.96S
WHEATON        CLEAR     57  32  38 CALM      30.00F
MORRIS         CLEAR     55  28  35 CALM      29.98F
ALEXANDRIA     PTCLDY    50  28  42 CALM      29.99F
ELBOW LAKE     FAIR      53  40  61 CALM      29.99S
WADENA         CLEAR     46  34  61 CALM      29.99S
GLENWOOD       PTCLDY    55  27  33 NW3       29.99F
APPLETON       CLEAR     52  32  46 CALM      29.99F
BENSON         CLEAR     46  30  53 W3        29.99F
ORTONVILLE     CLEAR     55  34  44 CALM      29.99F
MADISON        PTCLDY    54  30  40 CALM      30.00F
WILLMAR        FAIR      54  28  37 CALM      30.01S
$$
MNZ033>034-036-042>043-049>051-058-059-050500-
   Central Minnesota

CITY           SKY/WX    TMP DP  RH WIND       PRES   REMARKS
ST CLOUD       CLEAR     43  27  53 CALM      29.98S
SAUK CENTRE    FAIR      46  32  57 CALM      29.99F
PAYNESVILLE    CLEAR     43  28  53 W3        30.00S
AITKIN         CLEAR     41  32  70 CALM      29.96F
PINE RIVER     CLEAR     43  30  61 CALM      30.01F
BRAINERD       CLEAR     46  30  53 CALM      29.99S
STAPLES        CLOUDY    48  27  43 CALM      29.99R
LONG PRAIRIE   FAIR      45  32  61 CALM      30.00S
LITTLE FALLS   CLEAR     43  32  65 CALM      29.99S
LITCHFIELD     CLEAR     52  30  43 CALM      30.00S
BUFFALO        CLEAR     49  30  48 CALM      29.99F
MAPLE LAKE     CLEAR     45  35  67 CALM      30.00S
HUTCHINSON     CLEAR     50  34  54 CALM      30.00S
$$
MNZ037-044-045-052-053-050500-
   East Central Minnesota

CITY           SKY/WX    TMP DP  RH WIND       PRES   REMARKS
PRINCETON      CLEAR     43  30  61 CALM      29.98F
MORA           CLEAR     43  30  61 CALM      30.00S
CAMBRIDGE      CLEAR     45  30  57 CALM      29.96F
RUSH CITY      PTCLDY    42  30  62 CALM      29.99S
MOOSE LAKE     CLEAR     45  28  53 CALM      29.98R
HINCKLEY       CLOUDY    41  32  70 CALM      29.99R
CLOQUET        CLEAR     41  27  56 E3        29.98F
MCGREGOR       CLEAR     43  30  61 CALM      29.98S
$$
MNZ071>073-080-081-089-090-097-098-050500-
   Southwest Minnesota

CITY           SKY/WX    TMP DP  RH WIND       PRES   REMARKS
MONTEVIDEO     CLEAR     52  28  40 CALM      30.01F
GRANITE FALLS  CLEAR     54  31  41 CALM      30.01F
CANBY          CLEAR     52  37  55 SW3       30.02S
MARSHALL       PTCLDY    50  32  50 W5        30.01S
REDWOOD FALLS  CLEAR     57  25  29 N3        29.99S
OLIVIA         CLEAR     50  28  43 N3        29.99S
PIPESTONE      CLEAR     55  27  33 CALM      30.02S
WINDOM         CLEAR     48  30  49 CALM      30.00F
WORTHINGTON    CLEAR     51  36  56 NW5       30.02R
JACKSON        CLEAR     50  34  53 NW9       30.01R
TRACY          PTCLDY    56  32  40 NW5       30.01S
SLAYTON        CLEAR     50  33  51 NW7       30.02S
$$
MNZ065>067-074>077-082>085-091>093-050500-
   South Central Minnesota

CITY           SKY/WX    TMP DP  RH WIND       PRES   REMARKS
MANKATO        CLEAR     55  28  35 NE5       29.99S
ST JAMES       CLEAR     48  28  46 CALM      30.00S
FAIRMONT       CLEAR     52  32  46 N5        29.99R
GLENCOE        CLEAR     51  33  50 CALM      29.98S
FARIBAULT      CLEAR     45  32  61 W1        29.99R
OWATONNA       CLEAR     46  25  42 CALM      29.99R
WASECA         CLEAR     52  28  40 N7        30.00S
ALBERT LEA     CLEAR     52  25  35 N6        29.98S
$$
MNZ078>079-086>088-094>096-050500-
   Southeast Minnesota

CITY           SKY/WX    TMP DP  RH WIND       PRES   REMARKS
ROCHESTER      CLEAR     50  27  40 N8        29.98R
RED WING       CLEAR     46  27  46 E5        29.98R
STANTON        CLEAR     45  30  56 CALM      29.98R
DODGE CENTER   PTCLDY    48  23  37 N3        29.98S
WINONA         CLEAR     54  27  35 NE5       29.99R
AUSTIN         CLEAR     48  28  46 N3        29.98R
PRESTON        CLEAR     47  27  45 NE6       29.98R
$$
ABBREVIATIONS USED IN REMARKS
   TC - TEMPERATURES IN CELSIUS
  WCI - WIND CHILL INDEX
   HX - HEAT INDEX
  VSB - VISIBILITY
$$




USA.gov is the U.S. government's official web portal to all federal, state and local government web resources and services.